Temp
61 61 60 60 60 60 60 60 61 61 61 62 62 61 61 61 62 72 77 87 87 71 76 89 90 91 92 90 91 91 78 74 77 78 81 88 84 88 88 86 84 86 85 86 86
60 60 60 60 60 60 60 60 60 61 61 61 61 61 61 61 77 81 84 77 74 73 90 87 86 89 86 88 88 83 77 77 85 86 84 88 86 88 82 82 81 81 83 83 84
60 60 60 60 60 59 59 59 60 60 61 61 61 61 61 66 78 87 76 75 73 77 96 94 93 88 83 87 85 84 76 84 86 88 89 87 86 88 83 81 85 84 87 83 84
59 59 59 59 59 59 59 59 59 60 60 60 60 60 61 77 72 87 76 74 74 91 94 91 89 83 82 79 86 78 84 85 87 88 87 83 87 83 84 87 88 88 88 85 83
58 58 59 58 58 58 58 58 59 59 59 59 60 60 73 75 77 93 76 76 83 87 88 87 84 83 79 83 85 81 83 87 88 88 87 85 83 83 85 89 88 88 86 84 83
58 58 58 58 58 58 58 58 58 58 58 59 60 60 72 67 93 94 92 90 90 88 87 90 88 91 86 84 83 85 85 85 86 86 85 82 83 80 87 87 85 83 84 84 83
58 58 58 58 58 58 58 58 57 57 58 60 61 67 69 74 92 93 91 90 94 92 87 92 95 89 88 82 88 85 78 82 83 84 82 83 77 78 88 84 82 81 83 83 82
58 58 58 58 58 58 58 58 57 58 59 60 61 70 68 89 94 91 93 90 90 93 92 94 95 90 87 89 83 79 80 73 83 82 81 80 68 80 88 81 81 82 82 80 79
58 58 58 59 58 58 57 56 57 59 60 62 67 69 70 79 80 88 91 85 89 90 90 92 90 85 85 78 75 77 69 73 76 84 81 78 74 82 87 83 81 82 81 80 79
58 57 57 58 58 57 56 56 60 59 65 70 72 64 76 77 85 87 91 89 85 85 83 83 84 78 80 76 65 69 70 74 72 79 79 77 76 81 85 84 80 81 81 79 78
58 57 57 58 57 56 59 71 68 64 66 71 71 74 77 84 86 85 86 83 85 82 74 80 75 70 76 78 78 76 73 71 76 80 75 75 76 79 83 84 82 81 79 78 77
58 57 57 57 57 56 62 64 61 60 60 73 72 74 81 80 74 81 88 78 76 72 79 75 70 79 82 81 76 74 71 71 76 78 75 75 74 79 82 83 84 81 79 78 77
56 56 57 57 56 59 62 63 68 67 60 69 74 73 75 79 74 79 83 81 76 74 76 72 76 82 79 76 72 72 70 70 70 75 77 74 70 76 81 83 84 82 83 80 78
55 56 56 56 53 66 61 67 69 66 57 66 66 73 78 79 70 85 86 82 79 75 78 76 83 78 74 73 75 68 76 74 71 68 63 73 59 71 77 79 82 82 80 80 78
55 56 56 54 60 61 64 69 69 64 45 74 71 85 81 73 79 78 87 82 74 76 78 73 77 74 72 74 78 71 79 74 72 68 67 68 63 70 77 74 79 84 84 80 79
55 55 55 54 56 66 69 67 64 52 45 65 71 69 70 72 77 81 78 84 83 78 79 78 84 80 78 80 79 79 73 72 71 69 57 67 66 67 75 75 79 84 83 81 79
55 55 55 57 48 69 68 62 49 47 69 63 64 69 70 66 71 71 70 69 69 63 65 72 74 80 81 75 77 75 68 58 55 56 55 67 63 69 77 81 82 82 84 80 79
54 54 57 60 57 63 61 51 42 58 62 72 71 69 66 70 70 70 69 66 74 74 70 65 62 73 78 76 71 71 69 61 49 52 60 66 59 72 80 83 83 82 82 80 78
52 59 56 60 60 56 47 40 49 59 69 67 69 64 65 69 71 70 69 69 73 76 68 66 66 79 79 80 79 71 65 75 63 66 59 65 69 77 81 81 81 79 77 76 76
53 55 57 63 61 47 37 41 54 67 68 70 61 67 62 65 65 68 67 74 73 77 80 72 63 74 77 80 80 76 78 62 65 51 49 61 62 67 73 76 77 76 76 75 77
51 44 59 64 54 40 34 43 53 66 66 61 63 65 68 67 68 67 69 74 78 76 79 76 70 68 74 70 70 71 69 69 70 67 56 53 63 77 76 78 78 80 78 76 77
51 37 58 54 36 36 34 48 53 58 61 62 63 65 68 70 67 68 68 73 80 79 70 76 70 62 66 77 80 76 71 69 62 58 64 63 64 81 80 81 81 81 79 80 81
43 43 58 49 33 33 45 47 53 54 53 55 58 65 70 67 63 69 70 77 80 77 71 74 66 58 62 67 73 70 73 73 70 69 62 60 64 81 81 80 80 81 80 79 80
45 34 42 39 42 45 43 42 40 54 53 54 54 58 59 63 70 67 69 75 79 79 67 72 68 63 59 63 69 64 69 73 70 62 63 65 69 76 78 79 80 81 81 81 80
46 38 41 34 34 40 43 43 42 42 53 56 53 57 60 58 63 64 70 71 75 72 73 72 62 67 70 73 72 69 69 70 67 69 63 68 70 76 80 81 83 83 81 80 80
36 36 38 38 40 40 41 42 43 46 46 50 50 54 58 56 63 63 69 68 68 75 72 72 63 68 66 72 72 68 71 71 70 71 71 72 71 83 85 86 83 82 80 80 80
41 42 38 37 35 35 34 41 45 49 52 55 55 54 54 58 61 66 67 68 71 69 68 67 65 63 58 68 68 61 69 71 71 74 73 67 75 83 81 81 83 82 82 81 82
MSLP
1019.74 1019.45 1019.02 1018.69 1018.44 1018.08 1017.82 1017.69 1017.24 1017.11 1016.89 1016.40 1015.95 1015.61 1014.86 1014.28 1013.39 1013.38 1011.82 1009.83 1010.22 1011.29 1011.35 1011.43 1011.19 1010.86 1010.60 1010.03 1009.93 1009.63 1008.64 1007.06 1006.64 1006.68 1006.20 1006.44 1006.96 1007.25 1007.86 1007.84 1008.71 1009.12 1009.41 1010.04 1011.05
1019.62 1019.36 1018.93 1019.00 1018.79 1018.37 1018.24 1018.06 1017.48 1017.08 1016.41 1015.96 1015.68 1015.69 1014.70 1013.73 1012.82 1010.91 1009.48 1009.50 1009.55 1010.42 1010.39 1010.28 1010.04 1010.22 1009.62 1009.29 1009.27 1008.86 1007.79 1006.89 1006.73 1006.64 1006.40 1006.17 1006.42 1006.75 1007.66 1007.79 1008.41 1009.27 1010.04 1010.95 1011.15
1020.12 1019.63 1019.34 1019.16 1018.96 1018.68 1018.66 1018.17 1017.33 1016.96 1016.93 1016.97 1016.65 1016.10 1014.64 1013.93 1012.23 1008.16 1008.38 1009.07 1009.28 1009.59 1009.14 1009.20 1009.01 1009.33 1008.80 1008.50 1008.42 1008.11 1007.50 1007.05 1006.70 1006.50 1006.27 1006.10 1006.07 1006.67 1006.92 1006.62 1007.15 1007.78 1008.40 1010.34 1010.64
1020.25 1019.83 1019.60 1019.51 1019.14 1018.56 1018.01 1017.61 1017.33 1017.02 1017.02 1016.52 1015.56 1015.25 1014.19 1013.26 1010.11 1008.32 1008.56 1009.21 1009.41 1009.00 1008.73 1008.53 1008.40 1008.32 1007.84 1007.60 1007.78 1007.74 1007.38 1007.16 1006.66 1006.47 1006.41 1006.12 1006.22 1006.44 1006.66 1006.28 1007.27 1007.45 1008.13 1009.37 1009.94
1019.75 1019.54 1019.27 1018.81 1018.19 1018.09 1018.21 1018.02 1017.62 1017.15 1016.88 1016.30 1015.54 1014.88 1013.46 1011.69 1009.04 1008.32 1008.88 1009.07 1009.36 1009.20 1008.17 1007.85 1007.60 1007.44 1006.92 1006.88 1006.94 1007.09 1006.78 1006.62 1006.47 1006.45 1006.37 1006.47 1006.36 1006.36 1006.08 1006.50 1007.42 1007.65 1008.20 1008.81 1009.53
1019.67 1019.48 1019.13 1018.89 1018.64 1018.34 1017.84 1017.18 1016.89 1016.65 1015.90 1015.54 1015.52 1015.27 1013.49 1010.36 1007.93 1007.88 1007.82 1008.26 1008.19 1008.59 1007.96 1007.30 1006.60 1006.64 1006.35 1006.22 1006.31 1006.45 1006.47 1006.26 1006.27 1006.08 1006.32 1006.31 1006.09 1006.74 1005.78 1006.43 1007.27 1007.77 1007.93 1008.53 1009.28
1019.39 1019.30 1019.11 1018.84 1018.41 1017.77 1017.32 1016.84 1016.28 1015.62 1015.26 1015.33 1015.33 1014.72 1012.24 1008.42 1007.53 1007.56 1007.49 1007.36 1006.76 1007.14 1006.83 1006.78 1006.32 1006.02 1006.29 1006.04 1006.24 1006.40 1006.42 1005.99 1005.98 1005.97 1005.97 1006.36 1006.05 1006.00 1005.69 1006.44 1006.85 1007.49 1007.72 1008.24 1009.25
1018.67 1018.55 1018.41 1018.18 1017.78 1017.22 1016.65 1015.97 1015.55 1015.10 1014.78 1014.85 1014.58 1013.69 1010.00 1007.47 1007.41 1007.05 1007.14 1007.19 1007.03 1006.83 1006.68 1006.40 1006.46 1006.15 1005.70 1005.66 1006.12 1005.86 1005.68 1004.93 1004.43 1005.77 1006.06 1006.36 1005.33 1005.34 1005.40 1006.19 1006.17 1006.65 1007.29 1008.13 1009.17
1018.10 1017.93 1017.77 1017.57 1017.23 1016.85 1016.28 1015.60 1014.93 1014.38 1014.19 1014.11 1013.72 1012.56 1008.29 1007.25 1006.97 1006.14 1006.32 1006.32 1006.36 1006.61 1006.70 1006.32 1006.23 1005.78 1005.98 1005.53 1005.22 1004.72 1004.51 1003.91 1004.08 1004.91 1005.11 1005.61 1004.75 1004.52 1005.04 1005.56 1005.59 1005.93 1006.77 1007.67 1008.73
1017.62 1017.49 1017.33 1017.05 1016.82 1016.47 1015.92 1014.68 1013.92 1014.03 1013.54 1013.32 1012.63 1011.95 1007.51 1005.45 1005.15 1005.15 1005.33 1005.81 1005.46 1005.72 1006.04 1005.91 1005.28 1005.06 1004.83 1004.43 1003.51 1003.74 1003.87 1003.75 1004.16 1004.35 1004.90 1004.50 1004.30 1004.24 1004.44 1004.49 1005.03 1005.44 1006.19 1007.16 1008.11
1017.16 1017.00 1016.91 1016.75 1016.49 1016.13 1015.18 1013.14 1013.21 1012.71 1011.79 1009.27 1008.30 1006.72 1005.21 1004.96 1005.11 1004.57 1004.90 1005.27 1004.93 1004.75 1004.19 1004.37 1003.92 1002.92 1002.90 1003.52 1003.64 1003.65 1003.99 1003.76 1003.80 1004.31 1004.74 1004.16 1003.53 1003.60 1003.70 1003.67 1003.91 1004.56 1005.46 1006.53 1007.58
1016.96 1016.77 1016.51 1016.38 1016.16 1015.84 1015.16 1013.01 1012.86 1013.33 1010.41 1008.10 1007.36 1006.46 1005.50 1005.52 1004.34 1003.87 1004.22 1004.13 1003.85 1003.05 1003.28 1003.45 1002.15 1002.22 1002.93 1003.22 1003.80 1004.09 1003.89 1003.75 1003.87 1004.47 1004.64 1003.92 1003.19 1003.07 1002.91 1002.70 1002.92 1003.68 1004.65 1005.84 1007.16
1016.57 1016.42 1016.26 1016.07 1015.89 1015.27 1014.16 1013.38 1013.57 1013.19 1010.56 1006.00 1004.90 1004.33 1004.68 1004.89 1003.62 1002.64 1003.20 1002.81 1002.34 1002.22 1001.83 1001.21 1001.22 1002.16 1002.35 1002.94 1003.68 1003.62 1003.54 1003.63 1003.97 1004.17 1004.38 1003.69 1002.88 1002.01 1002.08 1001.97 1002.30 1003.25 1003.87 1005.00 1006.23
1016.25 1016.06 1015.90 1015.90 1015.88 1013.59 1013.17 1013.50 1013.55 1013.45 1009.36 1003.60 1003.03 1001.41 1002.42 1003.49 1002.58 1002.18 1002.12 1001.82 1001.47 1000.68 1000.84 1000.94 1000.76 1001.30 1002.23 1002.45 1003.15 1002.75 1003.47 1003.99 1004.09 1004.28 1003.51 1003.67 1002.19 1001.69 1001.30 1000.97 1001.21 1002.17 1003.16 1004.12 1005.60
1015.99 1015.69 1015.62 1015.87 1014.25 1013.56 1013.31 1013.52 1013.37 1012.90 1007.19 999.92 1000.31 1000.07 999.99 1000.71 999.43 999.93 1001.24 1001.31 1000.30 999.99 1000.37 999.59 999.97 1001.04 1001.30 1001.65 1002.42 1002.62 1003.07 1003.80 1004.06 1004.00 1003.85 1003.21 1002.27 1001.02 1000.53 1000.59 1000.38 1000.69 1001.76 1003.42 1004.97
1015.53 1015.39 1015.32 1015.28 1015.00 1013.53 1013.44 1013.49 1013.02 1010.23 1002.74 999.40 999.13 999.06 999.17 999.92 999.00 998.70 1000.10 1000.74 1000.64 1000.04 999.89 999.67 1000.13 1000.80 1000.97 1001.61 1002.21 1002.96 1003.62 1004.04 1004.22 1003.97 1003.22 1002.27 1001.70 1000.41 999.88 1000.06 1000.02 1000.31 1001.37 1002.92 1004.60
1014.90 1014.89 1015.04 1014.87 1014.58 1013.24 1013.52 1012.70 1010.36 1004.77 999.29 997.86 997.75 998.01 997.78 998.18 998.59 998.75 998.89 999.15 998.49 999.05 998.85 999.54 999.47 1000.23 1000.77 1001.09 1002.15 1002.53 1002.96 1002.87 1002.86 1002.56 1002.06 1002.11 1001.70 1000.27 999.91 999.87 999.96 1000.27 1001.08 1002.84 1004.31
1014.21 1014.43 1013.98 1014.13 1014.40 1013.98 1013.23 1011.38 1005.73 999.50 998.15 996.66 996.42 996.93 996.59 996.82 997.29 997.52 997.86 997.82 998.05 997.58 997.41 997.92 998.51 999.16 999.93 1000.05 1000.77 1001.49 1001.86 1001.57 1001.36 1001.62 1001.29 1001.99 1000.90 999.51 999.60 999.84 1000.21 1000.74 1001.40 1002.68 1004.13
1013.66 1013.35 1013.08 1013.20 1013.82 1014.29 1013.23 1008.90 1000.76 998.99 997.31 996.95 996.58 995.98 995.73 995.62 995.53 996.39 996.08 995.89 996.31 996.30 995.78 996.46 996.94 997.96 999.17 999.86 1000.06 1000.35 1001.09 1001.51 1001.56 1001.55 1001.80 1000.92 1000.21 999.78 999.43 999.27 999.92 1000.72 1001.78 1002.89 1004.09
1012.63 1012.09 1011.48 1011.95 1013.06 1014.07 1012.43 1006.37 1001.33 999.22 997.93 996.62 995.75 995.11 994.52 994.62 994.95 994.75 994.92 994.52 995.16 995.78 996.06 996.19 996.99 997.83 998.82 999.71 999.55 999.49 1000.85 1001.35 1001.50 1001.05 1000.68 1000.06 999.73 998.76 998.80 998.91 999.77 1000.70 1001.74 1003.00 1003.92
1012.19 1011.48 1010.54 1011.04 1012.89 1012.91 1009.81 1005.19 1003.27 1000.41 999.62 998.42 996.33 994.98 993.84 993.76 993.75 993.51 992.75 993.31 993.92 994.79 995.91 996.21 996.75 997.45 998.40 998.32 998.32 999.36 999.70 1000.22 1000.43 1000.41 999.97 999.63 998.82 998.65 998.73 999.09 999.40 1000.12 1001.44 1002.69 1003.55
1011.13 1010.67 1010.19 1011.28 1012.13 1011.43 1009.16 1005.54 1004.75 1002.42 1001.45 999.74 998.23 995.85 994.05 993.30 993.08 992.72 992.35 992.51 993.00 993.82 994.65 995.28 996.66 996.78 997.19 997.71 998.13 998.33 998.92 999.70 999.79 1000.15 1000.25 999.50 998.35 998.49 998.77 999.15 999.49 1000.00 1001.08 1002.05 1002.93
1011.00 1010.61 1010.48 1011.06 1010.45 1009.92 1008.17 1006.62 1005.49 1003.87 1003.43 1001.45 999.39 997.18 995.13 993.87 993.22 992.46 992.51 992.82 992.96 993.38 994.19 995.58 995.94 996.62 996.90 998.00 997.87 997.52 998.23 998.81 999.54 999.76 999.08 998.72 998.16 998.33 998.72 999.06 999.50 999.84 1000.76 1001.88 1002.56
1010.81 1010.86 1010.97 1011.13 1010.35 1008.72 1007.62 1006.80 1006.20 1004.71 1004.12 1003.63 1001.49 999.52 997.31 994.52 993.48 992.52 992.45 992.73 992.88 993.23 994.19 995.07 995.30 995.02 994.49 995.48 997.10 997.53 997.54 997.97 998.46 998.66 998.67 998.08 997.66 997.39 997.90 998.31 999.04 999.69 1000.56 1001.30 1002.15
1010.75 1010.57 1010.58 1010.06 1010.19 1008.99 1007.99 1007.24 1005.93 1005.17 1004.67 1003.46 1001.30 999.59 997.37 995.48 994.22 993.39 992.92 993.07 993.31 993.40 994.46 994.55 994.57 995.08 995.25 995.43 995.98 996.44 996.80 997.15 997.47 997.81 997.63 997.36 996.97 996.98 997.00 997.36 997.96 999.17 1000.15 1000.97 1001.63
1011.15 1011.37 1011.08 1010.21 1009.56 1008.87 1008.18 1006.69 1005.70 1004.98 1004.94 1002.76 1002.05 1000.37 998.69 997.03 995.29 994.05 993.39 993.30 992.66 993.06 993.74 994.44 994.20 994.75 994.83 995.19 995.29 995.63 995.92 996.24 996.66 996.83 996.97 996.84 996.42 996.47 996.76 996.95 997.71 998.61 999.51 1000.14 1000.76
1011.15 1011.23 1010.82 1009.59 1009.30 1008.64 1007.84 1006.86 1005.54 1004.78 1004.18 1002.87 1002.02 1000.66 999.64 998.35 998.11 996.56 995.45 994.39 993.31 993.14 993.31 994.13 994.38 994.56 994.36 994.89 995.21 994.81 994.24 994.95 995.58 995.79 996.01 995.80 996.06 996.12 996.20 996.81 997.10 997.94 998.84 999.34 1000.00
Wind_Speed
16 16 16 17 17 17 19 18 17 16 15 15 17 16 14 15 12 5 16 8 10 16 9 12 10 11 13 12 10 6 12 12 12 13 12 4 11 4 3 8 7 8 7 3 7
17 17 17 16 16 17 17 18 17 18 17 19 16 18 16 14 9 20 11 17 16 22 17 16 15 14 12 14 9 11 12 15 8 11 14 16 9 13 7 8 10 9 5 5 10
15 17 17 17 16 14 14 16 16 17 16 15 14 15 15 13 13 7 3 13 16 24 19 19 12 16 17 12 13 14 15 14 14 14 16 18 13 10 11 12 10 9 11 11 11
14 14 15 14 14 15 17 17 18 16 18 18 16 16 16 6 8 5 9 12 18 21 17 17 17 19 17 18 15 15 15 16 15 12 12 9 7 9 12 12 5 5 4 13 14
12 14 15 16 17 17 16 16 16 16 16 15 15 15 8 10 14 5 8 10 13 19 22 21 20 20 19 17 15 14 17 14 13 12 9 3 9 8 10 6 6 6 10 14 12
9 12 13 15 16 17 16 17 16 17 18 15 13 12 7 19 6 10 11 10 11 18 21 24 20 21 15 17 15 12 11 13 11 11 6 8 4 5 7 2 9 10 12 12 12
9 10 11 13 15 17 17 16 17 19 19 16 12 8 10 23 3 2 6 8 10 18 16 24 22 16 17 12 15 11 14 13 13 10 6 6 9 10 9 4 9 12 11 12 11
10 10 11 12 15 17 19 19 21 22 20 16 9 8 12 8 15 21 19 14 5 11 14 15 19 17 12 7 10 14 15 15 13 9 6 7 9 10 5 9 13 13 13 12 13
13 10 10 12 14 16 17 20 25 18 8 4 8 8 14 7 13 19 16 17 20 15 10 8 19 17 15 15 16 15 15 19 10 11 6 11 13 7 6 9 13 12 14 13 13
12 12 12 10 13 15 16 22 8 7 5 7 5 7 12 11 11 7 12 19 10 16 13 14 13 16 18 17 16 16 13 11 13 10 10 12 14 14 14 13 12 13 14 14 14
15 10 13 11 12 13 16 5 8 9 10 12 11 16 3 5 4 10 9 16 15 19 18 21 20 23 26 22 16 13 12 14 11 5 10 15 14 15 15 17 13 14 14 16 15
16 14 10 10 11 11 11 7 3 5 11 19 25 19 21 4 6 14 13 15 20 22 22 17 23 25 21 18 16 15 17 17 11 9 9 16 17 18 17 17 13 13 14 16 15
12 14 13 9 8 10 7 6 3 4 10 14 22 24 25 19 12 15 20 21 23 27 27 23 20 22 19 15 18 19 17 14 12 12 12 16 18 14 8 9 10 11 12 15 17
13 11 12 6 6 3 6 7 4 4 9 11 12 14 28 21 19 23 21 19 19 28 26 22 19 19 18 22 20 20 15 15 13 13 12 4 15 14 11 12 12 12 12 13 16
13 14 10 10 8 6 7 1 6 5 10 6 13 9 18 30 9 27 21 20 20 19 25 23 23 23 22 20 19 15 12 12 14 12 12 16 9 10 6 10 9 7 12 13 16
14 14 9 2 8 11 4 6 5 9 16 10 12 17 19 28 17 17 26 18 16 20 20 23 15 19 19 14 12 14 8 9 8 11 12 15 10 10 3 4 5 6 3 10 15
15 13 11 5 3 10 5 8 10 17 7 12 13 19 25 19 27 18 31 30 20 23 22 25 20 19 17 18 13 16 13 10 10 10 11 2 7 10 10 8 9 9 4 9 15
14 11 11 10 9 10 7 11 19 21 28 9 14 21 24 20 25 25 25 29 29 24 18 22 25 25 17 19 16 19 17 11 10 12 11 5 7 4 2 5 5 4 4 10 17
10 9 10 10 11 7 9 18 23 24 16 26 11 21 19 21 12 24 27 29 31 28 19 23 24 27 23 21 20 14 15 15 16 14 9 12 6 11 7 7 4 3 6 12 17
8 8 11 15 13 5 8 31 22 18 6 19 31 20 24 25 17 25 25 22 31 32 25 9 20 15 23 19 22 21 15 11 10 13 13 9 6 6 2 6 4 7 9 14 17
7 5 4 14 10 6 13 31 28 23 7 11 20 28 23 21 24 27 19 12 32 32 26 15 12 21 17 22 22 13 17 14 13 13 12 9 6 5 2 3 3 8 11 16 17
6 5 5 12 9 3 9 32 32 19 21 20 11 20 22 21 25 24 23 22 23 27 35 29 12 14 21 20 22 22 22 21 12 15 10 11 9 5 4 1 1 9 13 17 17
4 3 3 9 10 12 11 26 25 22 16 14 17 13 21 21 17 24 19 14 17 27 27 24 15 16 16 10 14 22 21 21 20 15 15 12 9 7 6 5 3 11 14 15 18
3 3 4 1 8 18 24 19 18 18 21 21 19 19 19 20 18 15 19 18 18 26 14 22 17 26 22 20 18 22 21 23 22 17 15 16 16 9 8 9 8 9 13 16 19
3 4 3 4 6 13 9 10 12 19 21 20 12 19 14 16 22 17 18 17 16 22 22 20 24 24 24 21 24 20 22 24 25 23 20 16 17 14 9 8 8 11 13 16 20
3 3 3 2 4 15 14 17 21 17 18 25 22 24 6 12 12 20 16 17 21 19 25 21 15 19 20 24 20 22 24 23 25 25 22 19 17 10 11 5 7 11 15 17 21
1 3 2 3 4 2 3 12 19 17 19 22 25 14 16 5 11 11 10 2 3 19 20 20 16 15 20 19 20 24 25 25 23 25 22 22 18 15 10 12 12 13 15 17 18
Wind_Direction
353 354 355 353 352 351 348 345 348 342 335 330 328 325 330 331 310 179 249 212 180 166 153 165 186 189 199 220 226 248 259 259 267 278 292 281 279 157 312 244 221 195 264 44 153
345 345 350 347 346 346 340 334 339 336 335 332 334 323 325 337 291 265 240 210 155 164 185 194 194 190 196 218 206 228 250 262 284 294 285 294 278 295 223 212 229 222 199 192 177
336 337 338 336 335 335 329 327 334 334 326 314 311 309 319 309 268 254 167 189 162 170 202 204 208 199 222 218 208 224 254 277 272 270 292 288 286 260 255 262 247 244 208 200 196
325 328 327 323 323 327 328 327 325 324 317 316 327 319 322 264 263 75 27 150 170 190 209 202 200 203 218 213 223 241 249 260 270 292 290 277 272 249 242 273 358 237 222 192 200
321 322 324 326 329 324 316 314 315 312 307 312 321 325 311 245 247 182 152 132 173 198 208 205 201 206 216 216 229 230 263 258 269 274 260 270 244 277 268 283 228 231 195 201 203
303 313 319 319 316 314 315 319 314 305 312 317 311 305 252 254 263 250 241 241 228 200 206 209 212 214 232 232 233 244 259 273 265 251 210 237 224 247 290 263 223 216 209 205 202
275 287 301 308 310 314 314 311 308 309 309 302 290 260 247 241 200 239 212 241 224 206 213 216 219 206 223 223 232 253 255 240 234 217 224 243 245 253 282 200 237 227 218 206 199
263 275 290 300 306 312 313 311 306 301 296 285 241 218 255 253 253 250 247 246 187 203 233 210 220 218 223 188 204 230 236 251 192 201 160 225 269 271 287 217 233 223 217 205 200
276 273 278 290 294 308 308 304 300 294 254 198 182 234 258 115 226 237 225 218 221 220 228 201 200 213 208 228 238 225 250 231 233 197 194 217 277 282 298 255 261 235 221 210 197
300 273 276 290 300 302 313 290 288 249 170 184 255 227 239 228 214 217 198 211 191 188 188 197 191 198 217 214 229 232 222 243 257 184 224 252 255 270 277 249 256 252 228 216 207
303 289 276 284 292 309 324 295 208 186 208 216 187 229 85 255 230 211 172 191 203 187 188 192 205 206 209 218 239 267 259 258 253 271 264 275 285 287 281 274 254 253 224 217 208
298 298 280 269 282 308 290 277 36 357 289 236 250 239 261 301 237 216 178 184 192 197 200 187 216 211 220 217 229 232 243 249 254 267 278 289 285 293 288 270 262 243 222 213 199
288 293 298 257 280 272 274 288 326 312 257 249 225 226 224 212 234 202 192 207 193 201 200 204 213 216 212 213 217 228 242 248 260 293 273 264 271 284 288 243 244 241 228 206 199
292 286 293 265 266 265 244 146 291 292 271 241 203 235 210 218 233 228 200 196 208 208 205 217 216 187 199 217 216 233 220 260 259 269 283 349 294 293 269 264 229 223 216 207 195
288 279 274 246 329 245 72 259 317 224 268 165 175 147 187 188 154 197 193 203 213 205 201 206 205 191 206 214 212 242 236 234 258 271 285 266 253 291 256 275 261 241 205 200 188
273 266 259 274 242 262 268 297 227 216 236 193 158 182 173 200 212 153 184 202 217 212 211 223 207 201 212 212 215 227 202 226 248 259 252 260 260 279 278 301 282 253 71 179 178
264 268 238 151 237 253 247 230 202 228 164 185 180 178 180 186 203 176 187 193 189 194 200 213 190 208 214 207 204 222 213 227 219 218 251 129 255 260 307 292 290 291 306 169 171
248 258 224 221 220 278 229 220 221 221 223 117 189 182 192 172 202 190 190 195 209 201 190 198 206 191 196 206 186 202 210 238 231 245 253 155 256 228 333 314 290 298 303 153 170
231 235 239 212 206 211 242 216 221 219 220 226 192 192 197 189 192 195 205 204 199 199 212 196 208 194 202 209 218 181 220 229 256 269 272 276 207 251 254 239 212 192 145 158 168
224 223 235 200 183 180 221 237 230 234 287 219 223 201 197 191 202 192 191 209 205 211 213 190 207 187 195 207 212 227 199 201 222 243 241 243 240 264 275 35 114 169 154 161 167
204 216 205 178 164 203 213 228 237 269 328 292 238 230 223 190 204 193 197 186 202 195 207 184 205 193 190 204 203 186 223 214 254 226 233 249 258 82 291 48 56 154 158 164 172
211 214 178 143 192 216 229 229 239 284 319 266 301 268 230 223 201 197 217 202 191 188 198 202 198 178 211 197 219 201 213 206 222 210 247 280 264 116 261 112 275 156 165 170 170
215 235 177 182 203 218 246 244 250 248 277 313 276 255 250 232 224 216 209 197 186 190 195 189 209 205 194 186 214 225 211 217 216 247 241 228 229 137 166 196 188 166 163 170 173
167 217 192 241 261 242 231 245 253 257 257 272 269 292 269 237 224 207 209 190 192 189 183 191 200 209 208 200 194 208 223 214 215 222 231 236 253 206 206 215 177 178 169 172 178
233 221 264 189 230 256 256 242 254 239 239 265 288 245 281 235 218 224 204 177 200 189 187 188 209 208 225 214 200 207 213 213 218 218 232 231 234 236 240 207 215 180 177 176 179
171 245 202 206 280 213 228 244 254 245 245 245 249 275 277 261 269 214 200 191 186 181 192 191 211 219 212 220 210 214 217 211 217 221 228 239 251 221 243 270 182 180 183 186 186
139 207 235 154 180 211 288 244 254 251 236 251 242 265 260 324 319 325 324 355 153 186 188 190 206 206 218 215 222 226 216 214 219 224 226 230 234 245 229 232 210 189 192 192 195